This demonstration page uses our WeatherBlox Daily Observations layout. Learn more.

Left ArrowRight Arrow

39.29038, -76.61219

Hourly Observations for May 10, 2017

Temp ( °F °C ) Dew Point ( °F °C ) Humidity (%) Winds ( mph kmh ) Pressure ( in mb ) Visibility ( mi km ) Precip ( " mm )
12:54 am 00:54 undefined 56 13.3 34 1.1 44 44 undefined N/A 29.97 1015 N/A N/A
1:54 am 01:54 undefined 55 12.8 34 1.1 45 45 undefined N/A 29.96 1015 N/A N/A
2:54 am 02:54 undefined 54 12.2 35 1.7 49 49 undefined N/A 29.96 1015 N/A N/A
3:54 am 03:54 undefined 55 12.8 35 1.7 47 47 undefined N/A 29.96 1015 N/A N/A
4:54 am 04:54 undefined 54 12.2 36 2.2 51 51 undefined N/A 29.96 1015 N/A N/A
5:54 am 05:54 undefined 54 12.2 35 1.7 49 49 undefined N/A 29.98 1015 N/A N/A
6:54 am 06:54 undefined 55 12.8 36 2.2 49 49 undefined N/A 30.01 1016 N/A N/A
7:54 am 07:54 undefined 58 14.4 37 2.8 46 46 undefined N/A 30.01 1016 N/A N/A
8:54 am 08:54 undefined 60 15.6 39 3.9 46 46 undefined N/A 30.02 1017 N/A N/A
9:54 am 09:54 undefined 62 16.7 40 4.4 44 44 undefined N/A 30.01 1016 N/A N/A
10:54 am 10:54 undefined 66 18.9 43 6.1 43 43 undefined N/A 30.01 1016 N/A N/A
11:54 am 11:54 undefined 69 20.6 39 3.9 33 33 undefined N/A 30.00 1016 N/A N/A
12:54 pm 12:54 undefined 70 21.1 40 4.4 34 34 undefined N/A 29.98 1015 N/A N/A
1:54 pm 13:54 undefined 72 22.2 35 1.7 26 26 undefined N/A 29.97 1015 N/A N/A
2:54 pm 14:54 undefined 73 22.8 34 1.1 24 24 undefined N/A 29.96 1015 N/A N/A
3:54 pm 15:54 undefined 73 22.8 34 1.1 24 24 undefined N/A 29.94 1014 N/A N/A
4:54 pm 16:54 undefined 72 22.2 35 1.7 26 26 undefined N/A 29.96 1015 N/A N/A
5:54 pm 17:54 undefined 70 21.1 39 3.9 32 32 undefined N/A 29.97 1015 N/A N/A
6:54 pm 18:54 undefined 69 20.6 40 4.4 35 35 undefined N/A 29.96 1015 N/A N/A
7:54 pm 19:54 undefined 67 19.4 41 5 39 39 undefined N/A 29.97 1015 N/A N/A
8:54 pm 20:54 undefined 66 18.9 38 3.3 36 36 undefined N/A 29.99 1016 N/A N/A
9:54 pm 21:54 undefined 66 18.9 35 1.7 32 32 undefined N/A 30.01 1016 N/A N/A
10:54 pm 22:54 undefined 66 18.9 33 0.6 29 29 undefined N/A 30.00 1016 N/A N/A
11:54 pm 23:54 undefined 65 18.3 34 1.1 32 32 undefined N/A 29.99 1016 N/A N/A

Powered by AerisWeather